TimeCST,TemperatureF,Dew PointF,Humidity,Sea Level PressureIn,VisibilityMPH,Wind Direction,Wind SpeedMPH,Gust SpeedMPH,PrecipitationIn,Events,Conditions,WindDirDegrees,DateUTC
12:13 AM,-6.0,-11.6,77,30.27,10.0,NE,10.4,-,N/A,,Clear,40,2014-01-01 06:13:00
12:34 AM,-6.5,-12.1,77,30.27,10.0,NNE,9.2,-,N/A,,Clear,30,2014-01-01 06:34:00
12:53 AM,-5.8,-11.4,77,30.27,10.0,NE,5.8,-,N/A,,Mostly Cloudy,50,2014-01-01 06:53:00
1:13 AM,-5.3,-11.4,75,30.27,10.0,NE,9.2,-,N/A,,Overcast,40,2014-01-01 07:13:00
1:34 AM,-5.3,-11.4,75,30.28,10.0,NE,8.1,-,N/A,,Overcast,40,2014-01-01 07:34:00
1:53 AM,-5.1,-11.4,74,30.28,10.0,NNE,6.9,-,N/A,,Overcast,30,2014-01-01 07:53:00
2:13 AM,-4.9,-11.2,74,30.29,10.0,NE,8.1,-,N/A,,Overcast,40,2014-01-01 08:13:00
2:33 AM,-4.9,-11.2,74,30.29,10.0,NNE,9.2,-,N/A,,Overcast,30,2014-01-01 08:33:00
2:53 AM,-4.5,-11.2,73,30.30,10.0,NNE,10.4,-,N/A,,Overcast,30,2014-01-01 08:53:00
3:13 AM,-4.5,-11.2,73,30.30,10.0,NNE,9.2,-,N/A,,Overcast,30,2014-01-01 09:13:00
3:33 AM,-4.9,-11.7,72,30.29,10.0,NE,6.9,-,N/A,,Scattered Clouds,40,2014-01-01 09:33:00
3:53 AM,-4.5,-11.2,73,30.28,10.0,NE,9.2,-,N/A,,Mostly Cloudy,40,2014-01-01 09:53:00
4:13 AM,-4.5,-11.6,72,30.28,10.0,NE,9.2,-,N/A,,Mostly Cloudy,40,2014-01-01 10:13:00
4:33 AM,-4.5,-11.4,72,30.28,10.0,NE,8.1,-,N/A,,Mostly Cloudy,40,2014-01-01 10:33:00
4:53 AM,-4.2,-11.2,72,30.28,10.0,NE,6.9,-,N/A,,Overcast,40,2014-01-01 10:53:00
5:13 AM,-4.0,-11.2,71,30.28,10.0,NE,8.1,-,N/A,,Overcast,40,2014-01-01 11:13:00
5:34 AM,-4.0,-11.2,71,30.29,10.0,NNE,4.6,-,N/A,,Overcast,20,2014-01-01 11:34:00
5:53 AM,-4.2,-11.2,72,30.30,10.0,NNE,6.9,-,N/A,,Mostly Cloudy,20,2014-01-01 11:53:00
6:13 AM,-4.5,-11.2,73,30.30,10.0,NNE,9.2,-,N/A,,Scattered Clouds,20,2014-01-01 12:13:00
6:33 AM,-5.1,-11.7,73,30.30,10.0,NNE,8.1,-,N/A,,Scattered Clouds,30,2014-01-01 12:33:00
6:53 AM,-5.1,-11.7,73,30.31,10.0,NNE,6.9,-,N/A,,Mostly Cloudy,30,2014-01-01 12:53:00
7:13 AM,-4.9,-11.4,74,30.31,10.0,NE,9.2,-,N/A,,Overcast,40,2014-01-01 13:13:00
7:33 AM,-4.5,-11.2,73,30.31,10.0,NE,8.1,-,N/A,,Overcast,40,2014-01-01 13:33:00
7:53 AM,-4.2,-11.2,72,30.31,10.0,NE,9.2,-,N/A,,Overcast,40,2014-01-01 13:53:00
8:13 AM,-4.0,-10.7,73,30.31,10.0,NE,6.9,-,N/A,,Overcast,40,2014-01-01 14:13:00
8:32 AM,-3.5,-10.3,73,30.33,10.0,NE,6.9,-,N/A,,Overcast,40,2014-01-01 14:32:00
8:53 AM,-3.1,-10.3,71,30.33,10.0,NE,9.2,-,N/A,,Overcast,40,2014-01-01 14:53:00
9:13 AM,-3.1,-10.3,71,30.34,10.0,NE,9.2,-,N/A,,Mostly Cloudy,40,2014-01-01 15:13:00
9:33 AM,-2.2,-9.6,71,30.34,10.0,NE,8.1,-,N/A,,Mostly Cloudy,40,2014-01-01 15:33:00
9:54 AM,-0.8,-8.7,69,30.35,10.0,NE,10.4,-,N/A,,Overcast,40,2014-01-01 15:54:00
10:13 AM,-0.2,-8.3,69,30.36,10.0,NNE,9.2,-,N/A,,Overcast,30,2014-01-01 16:13:00
10:33 AM,0.5,-7.8,68,30.36,10.0,NE,10.4,-,N/A,,Overcast,40,2014-01-01 16:33:00
10:53 AM,0.5,-7.6,69,30.35,10.0,NNE,9.2,-,N/A,,Overcast,30,2014-01-01 16:53:00
11:13 AM,1.2,-7.1,68,30.34,10.0,NNE,8.1,-,N/A,,Overcast,30,2014-01-01 17:13:00
11:34 AM,1.2,-7.1,68,30.33,10.0,NNE,9.2,-,N/A,,Overcast,20,2014-01-01 17:34:00
11:53 AM,1.4,-7.1,68,30.32,10.0,NNE,10.4,-,N/A,,Overcast,20,2014-01-01 17:53:00
12:13 PM,1.8,-6.7,68,30.32,10.0,North,9.2,-,N/A,,Overcast,10,2014-01-01 18:13:00
12:33 PM,2.3,-6.3,67,30.31,10.0,NNE,10.4,-,N/A,,Overcast,20,2014-01-01 18:33:00
12:53 PM,3.2,-5.8,66,30.31,10.0,NNE,9.2,-,N/A,,Overcast,20,2014-01-01 18:53:00
1:13 PM,3.2,-5.8,66,30.30,10.0,NNE,11.5,-,N/A,,Overcast,20,2014-01-01 19:13:00
1:33 PM,3.9,-5.8,64,30.29,10.0,NNE,10.4,16.1,N/A,,Overcast,30,2014-01-01 19:33:00
1:53 PM,4.1,-5.6,64,30.28,10.0,NNE,11.5,-,N/A,,Overcast,30,2014-01-01 19:53:00
2:13 PM,4.3,-5.4,64,30.28,10.0,NNE,8.1,-,N/A,,Overcast,20,2014-01-01 20:13:00
2:33 PM,4.1,-5.4,65,30.29,10.0,North,9.2,-,N/A,,Overcast,10,2014-01-01 20:33:00
2:53 PM,3.9,-6.0,64,30.29,10.0,North,11.5,-,N/A,,Overcast,10,2014-01-01 20:53:00
3:12 PM,4.1,-5.8,64,30.29,10.0,NNE,10.4,-,N/A,,Overcast,20,2014-01-01 21:12:00
3:33 PM,4.6,-5.8,62,30.30,10.0,NNE,10.4,-,N/A,,Overcast,20,2014-01-01 21:33:00
3:53 PM,4.8,-5.8,62,30.30,10.0,NE,10.4,-,N/A,,Overcast,40,2014-01-01 21:53:00
4:13 PM,4.6,-5.6,63,30.30,10.0,NNE,9.2,-,N/A,,Overcast,30,2014-01-01 22:13:00
4:33 PM,4.3,-5.3,65,30.30,10.0,NNE,10.4,-,N/A,,Overcast,20,2014-01-01 22:33:00
4:53 PM,4.1,-5.4,65,30.31,10.0,NNE,9.2,-,N/A,,Overcast,30,2014-01-01 22:53:00
5:13 PM,3.9,-5.4,65,30.31,10.0,NNE,8.1,-,N/A,,Overcast,20,2014-01-01 23:13:00
5:33 PM,4.1,-5.3,65,30.32,10.0,NNE,9.2,-,N/A,,Overcast,30,2014-01-01 23:33:00
5:53 PM,4.1,-5.1,66,30.32,10.0,NNE,8.1,-,N/A,,Overcast,30,2014-01-01 23:53:00
6:13 PM,4.3,-4.9,66,30.32,10.0,NNE,8.1,-,N/A,,Overcast,30,2014-01-02 00:13:00
6:34 PM,4.5,-4.9,65,30.32,10.0,NNE,8.1,-,N/A,,Overcast,20,2014-01-02 00:34:00
6:53 PM,4.3,-4.9,66,30.33,10.0,North,6.9,-,N/A,,Overcast,10,2014-01-02 00:53:00
7:14 PM,4.1,-4.2,69,30.33,10.0,North,9.2,-,N/A,,Overcast,10,2014-01-02 01:14:00
7:33 PM,4.1,-4.4,68,30.33,10.0,NNE,10.4,-,N/A,,Overcast,20,2014-01-02 01:33:00
7:53 PM,4.1,-4.2,69,30.33,10.0,NNE,9.2,-,N/A,,Overcast,20,2014-01-02 01:53:00
8:13 PM,3.9,-4.2,69,30.33,10.0,North,11.5,16.1,N/A,,Overcast,360,2014-01-02 02:13:00
8:33 PM,3.2,-4.0,72,30.33,10.0,North,9.2,-,N/A,,Overcast,10,2014-01-02 02:33:00
8:53 PM,3.2,-4.0,72,30.33,10.0,North,9.2,-,N/A,,Overcast,360,2014-01-02 02:53:00
9:14 PM,3.0,-4.0,73,30.33,10.0,North,8.1,-,N/A,,Overcast,360,2014-01-02 03:14:00
9:33 PM,3.0,-4.0,73,30.33,10.0,North,8.1,-,N/A,,Overcast,10,2014-01-02 03:33:00
9:53 PM,2.8,-4.0,73,30.32,10.0,North,6.9,-,N/A,,Overcast,10,2014-01-02 03:53:00
10:13 PM,2.8,-4.0,73,30.32,10.0,North,6.9,-,N/A,,Overcast,10,2014-01-02 04:13:00
10:33 PM,3.0,-3.6,74,30.33,10.0,North,6.9,-,N/A,,Overcast,360,2014-01-02 04:33:00
10:53 PM,3.0,-3.8,73,30.32,10.0,North,9.2,-,N/A,,Overcast,10,2014-01-02 04:53:00
11:13 PM,3.2,-4.0,72,30.32,10.0,North,6.9,-,N/A,,Overcast,10,2014-01-02 05:13:00
11:33 PM,3.2,-4.0,72,30.31,10.0,North,6.9,-,N/A,,Overcast,10,2014-01-02 05:33:00
11:53 PM,3.2,-4.0,72,30.31,10.0,North,9.2,-,N/A,,Overcast,10,2014-01-02 05:53:00